When you browse on this site, cookies collect data to enhance your experience and personalize the content and advertising you see.
Visit our Privacy Policy to learn more. By continuing to use the site, you agree to this use of cookies and data.
  • In Latvia
  • List of Countries
  • For 7 days
  • Water Temperature
  • Satellite Maps
  • Weather Map
  • Weather Widgets
  • user-avatar
    Login

    Hourly Weather Rechytsa

    Today, 22 April, Monday

    Time Temperature Precipitation Wind Pressure Humidity
    00:00 +9°C° 0 mm 2 mps 757 mmHg 56%
    01:00 +9°C° 0 mm 2 mps 758 mmHg 56%
    02:00 +9°C° 0 mm 2 mps 758 mmHg 55%
    03:00 +9°C° 0 mm 2 mps 758 mmHg 55%
    04:00 +8°C° 0 mm 2 mps 758 mmHg 54%
    05:00 +8°C° 0 mm 2 mps 758 mmHg 54%
    06:00 +9°C° 0 mm 2 mps 759 mmHg 51%
    07:00 +12°C° 0 mm 2 mps 759 mmHg 48%
    08:00 +13°C° 0 mm 2 mps 759 mmHg 46%
    09:00 +13°C° 0 mm 3 mps 759 mmHg 40%
    10:00 +14°C° 0 mm 3 mps 760 mmHg 35%
    11:00 +16°C° 0 mm 3 mps 760 mmHg 29%
    12:00 +17°C° 0 mm 3 mps 760 mmHg 29%
    13:00 +17°C° 0 mm 3 mps 760 mmHg 29%
    14:00 +17°C° 0 mm 3 mps 759 mmHg 29%
    15:00 +17°C° 0 mm 3 mps 759 mmHg 30%
    16:00 +17°C° 0 mm 3 mps 759 mmHg 31%
    17:00 +16°C° 0 mm 2 mps 759 mmHg 31%
    18:00 +15°C° 0 mm 2 mps 760 mmHg 34%
    19:00 +14°C° 0 mm 2 mps 760 mmHg 37%
    20:00 +13°C° 0 mm 1 mps 760 mmHg 40%
    21:00 +13°C° 0 mm 1 mps 760 mmHg 41%
    22:00 +12°C° 0 mm 1 mps 761 mmHg 42%
    23:00 +12°C° 0 mm 1 mps 761 mmHg 43%

    Tomorrow, 23 April, Tuesday

    Time Temperature Precipitation Wind Pressure Humidity
    00:00 +11°C° 0 mm 1 mps 761 mmHg 46%
    01:00 +10°C° 0 mm 1 mps 761 mmHg 48%
    02:00 +10°C° 0 mm 1 mps 761 mmHg 50%
    03:00 +10°C° 0 mm 1 mps 762 mmHg 51%
    04:00 +10°C° 0 mm 1 mps 762 mmHg 51%
    05:00 +10°C° 0 mm 1 mps 762 mmHg 51%
    06:00 +11°C° 0 mm 1 mps 762 mmHg 48%
    07:00 +13°C° 0 mm 1 mps 762 mmHg 46%
    08:00 +14°C° 0 mm 1 mps 762 mmHg 44%
    09:00 +15°C° 0 mm 2 mps 762 mmHg 39%
    10:00 +17°C° 0 mm 2 mps 762 mmHg 34%
    11:00 +18°C° 0 mm 3 mps 762 mmHg 29%
    12:00 +18°C° 0 mm 3 mps 762 mmHg 29%
    13:00 +18°C° 0 mm 3 mps 762 mmHg 30%
    14:00 +18°C° 0 mm 2 mps 761 mmHg 30%
    15:00 +18°C° 0 mm 2 mps 761 mmHg 32%
    16:00 +18°C° 0 mm 2 mps 761 mmHg 33%
    17:00 +18°C° 0 mm 2 mps 761 mmHg 34%
    18:00 +16°C° 0 mm 2 mps 761 mmHg 38%
    19:00 +14°C° 0 mm 1 mps 761 mmHg 43%
    20:00 +12°C° 0 mm 1 mps 761 mmHg 48%
    21:00 +12°C° 0 mm 1 mps 761 mmHg 50%
    22:00 +11°C° 0 mm 1 mps 761 mmHg 52%
    23:00 +10°C° 0 mm 1 mps 761 mmHg 54%

    Day after tomorrow, 24 April, Wednesday

    Time Temperature Precipitation Wind Pressure Humidity
    00:00 +10°C° 0 mm 1 mps 762 mmHg 55%
    01:00 +10°C° 0 mm 1 mps 762 mmHg 55%
    02:00 +10°C° 0 mm 1 mps 762 mmHg 56%
    03:00 +10°C° 0 mm 1 mps 762 mmHg 57%
    04:00 +10°C° 0 mm 1 mps 762 mmHg 58%
    05:00 +10°C° 0 mm 1 mps 762 mmHg 58%
    06:00 +12°C° 0 mm 1 mps 762 mmHg 55%
    07:00 +13°C° 0 mm 2 mps 762 mmHg 52%
    08:00 +15°C° 0 mm 2 mps 762 mmHg 48%
    09:00 +16°C° 0 mm 2 mps 762 mmHg 44%
    10:00 +17°C° 0 mm 3 mps 762 mmHg 39%
    11:00 +19°C° 0 mm 3 mps 762 mmHg 34%
    12:00 +19°C° 0 mm 3 mps 762 mmHg 34%
    13:00 +20°C° 0 mm 3 mps 761 mmHg 34%
    14:00 +20°C° 0 mm 3 mps 761 mmHg 33%
    15:00 +20°C° 0 mm 3 mps 761 mmHg 35%
    16:00 +19°C° 0 mm 3 mps 760 mmHg 36%
    17:00 +19°C° 0 mm 3 mps 760 mmHg 38%
    18:00 +17°C° 0 mm 3 mps 760 mmHg 44%
    19:00 +14°C° 0 mm 3 mps 760 mmHg 50%
    20:00 +13°C° 0 mm 2 mps 760 mmHg 56%
    21:00 +13°C° 0 mm 2 mps 761 mmHg 57%
    22:00 +12°C° 0 mm 2 mps 761 mmHg 59%
    23:00 +10°C° 0 mm 2 mps 761 mmHg 60%

    25 April, Thursday

    Time Temperature Precipitation Wind Pressure Humidity
    00:00 +10°C° 0 mm 2 mps 761 mmHg 61%
    01:00 +10°C° 0 mm 2 mps 761 mmHg 62%
    02:00 +9°C° 0 mm 2 mps 761 mmHg 63%
    03:00 +9°C° 0 mm 2 mps 761 mmHg 64%
    04:00 +8°C° 0 mm 2 mps 761 mmHg 65%
    05:00 +8°C° 0 mm 2 mps 761 mmHg 67%
    06:00 +10°C° 0 mm 2 mps 761 mmHg 61%
    07:00 +13°C° 0 mm 2 mps 761 mmHg 56%
    08:00 +15°C° 0 mm 2 mps 761 mmHg 50%
    09:00 +17°C° 0 mm 3 mps 761 mmHg 45%
    10:00 +18°C° 0 mm 3 mps 761 mmHg 40%
    11:00 +20°C° 0 mm 4 mps 761 mmHg 36%
    12:00 +20°C° 0 mm 4 mps 761 mmHg 35%
    13:00 +21°C° 0 mm 4 mps 760 mmHg 34%
    14:00 +21°C° 0 mm 4 mps 760 mmHg 33%
    15:00 +21°C° 0 mm 4 mps 759 mmHg 34%
    16:00 +21°C° 0 mm 4 mps 759 mmHg 36%
    17:00 +20°C° 0 mm 4 mps 759 mmHg 37%
    18:00 +18°C° 0 mm 3 mps 759 mmHg 43%
    19:00 +16°C° 0 mm 3 mps 759 mmHg 49%
    20:00 +13°C° 0 mm 3 mps 759 mmHg 56%
    21:00 +13°C° 0 mm 3 mps 759 mmHg 57%
    22:00 +12°C° 0 mm 3 mps 759 mmHg 59%
    23:00 +13°C° 0 mm 2 mps 759 mmHg 60%

    26 April, Friday

    Time Temperature Precipitation Wind Pressure Humidity
    00:00 +12°C° 0 mm 2 mps 759 mmHg 62%
    01:00 +12°C° 0 mm 2 mps 759 mmHg 63%
    02:00 +10°C° 0 mm 2 mps 759 mmHg 65%
    03:00 +10°C° 0 mm 2 mps 758 mmHg 67%
    04:00 +9°C° 0 mm 2 mps 758 mmHg 69%
    05:00 +9°C° 0 mm 2 mps 758 mmHg 71%
    06:00 +11°C° 0 mm 3 mps 758 mmHg 65%
    07:00 +13°C° 0 mm 3 mps 758 mmHg 59%
    08:00 +16°C° 0 mm 3 mps 757 mmHg 53%
    09:00 +18°C° 0 mm 4 mps 757 mmHg 48%
    10:00 +19°C° 0 mm 5 mps 757 mmHg 43%
    11:00 +21°C° 0 mm 5 mps 756 mmHg 38%
    12:00 +22°C° 0 mm 6 mps 756 mmHg 36%
    13:00 +22°C° 0 mm 6 mps 756 mmHg 35%
    14:00 +23°C° 0 mm 6 mps 755 mmHg 33%
    15:00 +22°C° 0 mm 5 mps 755 mmHg 34%
    16:00 +22°C° 0 mm 5 mps 754 mmHg 35%
    17:00 +22°C° 0 mm 4 mps 754 mmHg 35%
    18:00 +20°C° 0 mm 4 mps 754 mmHg 40%
    19:00 +18°C° 0 mm 3 mps 754 mmHg 46%
    20:00 +16°C° 0 mm 3 mps 754 mmHg 51%
    21:00 +14°C° 0 mm 3 mps 754 mmHg 53%
    22:00 +13°C° 0 mm 3 mps 754 mmHg 54%
    23:00 +13°C° 0 mm 3 mps 754 mmHg 56%

    27 April, Saturday

    Time Temperature Precipitation Wind Pressure Humidity
    00:00 +12°C° 0 mm 3 mps 753 mmHg 59%
    01:00 +12°C° 0 mm 3 mps 753 mmHg 62%
    02:00 +11°C° 0 mm 3 mps 753 mmHg 65%
    03:00 +11°C° 0 mm 3 mps 753 mmHg 67%
    04:00 +11°C° 0 mm 3 mps 753 mmHg 70%
    05:00 +10°C° 0 mm 3 mps 753 mmHg 72%
    06:00 +12°C° 0 mm 3 mps 753 mmHg 65%
    07:00 +14°C° 0 mm 4 mps 753 mmHg 59%
    08:00 +17°C° 0 mm 4 mps 753 mmHg 53%
    09:00 +19°C° 0 mm 5 mps 753 mmHg 48%
    10:00 +21°C° 0 mm 5 mps 753 mmHg 43%
    11:00 +22°C° 0 mm 6 mps 753 mmHg 38%
    12:00 +23°C° 0 mm 6 mps 753 mmHg 37%
    13:00 +23°C° 0 mm 6 mps 753 mmHg 36%
    14:00 +25°C° 0 mm 5 mps 752 mmHg 35%
    15:00 +25°C° 0 mm 5 mps 752 mmHg 36%
    16:00 +23°C° 0 mm 4 mps 752 mmHg 38%
    17:00 +23°C° 0 mm 4 mps 752 mmHg 40%
    18:00 +21°C° 0 mm 4 mps 752 mmHg 46%
    19:00 +19°C° 0 mm 3 mps 752 mmHg 53%
    20:00 +17°C° 0 mm 3 mps 752 mmHg 59%
    21:00 +16°C° 0 mm 3 mps 752 mmHg 61%
    22:00 +14°C° 0 mm 3 mps 752 mmHg 63%
    23:00 +14°C° 0 mm 3 mps 752 mmHg 65%
    Show more